Location: *
(47.6569°N, 7.4256°E)
Time: 03:20:29
(UTC+00:00)

Cosmos 1943 Rocket - Pass Details

Date: 14 December 2019
Orbit: 812 x 844 km, 71.0° (Epoch: 19 January)

Event Time Altitude Azimuth Distance (km) Brightness Sun altitude
Rises 18:22:26 0° 328° (NNW) 3,403 5.7 -26.4°
Reaches altitude 10° 18:24:57 10° 323° (NW) 2,460 5.0 -26.9°
Maximum altitude 18:30:21 48° 251° (WSW) 1,078 3.0 -27.8°
Drops below altitude 10° 18:35:40 10° 178° (S) 2,424 4.6 -28.6°
Sets 18:38:08 0° 173° (S) 3,347 5.3 -29.1°
